sat.trackr.live / text

‹ back to catalog

FENGYUN 3D

NORAD 43010 · 2017-072A

PAYLOAD ACTIVE UNKNOWN

§ Identity

Operator
Country
PRC
Launch date
2017-11-14
Launch site
TAISC
Launch vehicle
Mass (kg)
RCS (m²)

Purposes: earth_obs

External: N2YO · Heavens-Above · Gunter

§ Orbital elements

Epoch: 2026-05-25T04:08:27.091392Z

Period
101.43 min
Inclination
99.0118°
Eccentricity
0.0002500
Mean motion
14.19734693 rev/d
Perigee alt
824.4 km
Apogee alt
828.1 km
Semi-major
7,204.4 km
B*
1.2663e-4
RAAN
119.1812°
Arg perigee
100.4473°
Mean anomaly
259.6985°
Rev number
44,172

§ Raw data

FENGYUN 3D1 43010U 17072A   26145.17253578  .00000222  00000+0  12663-3 0  99972 43010  99.0118 119.1812 0002500 100.4473 259.6985 14.19734693441726

JSON: /api/v1/satellites/43010 · /tle

For live sub-satellite position, see the globe view (requires WebGL).

§ Visibility from observer

Set your observer location to see the next 7 days of passes ≥ 10°. The values pass through the URL so the page stays shareable.

No JS? Fill the form by hand. The geolocation button needs JavaScript.

§ Radio — SatNOGS DB

ModeDescriptionDownlinkUplink
AHRPT AHRPT 7.820 GHz
BPSK Telemetry 2.246 GHz
BPSK Telemetry 2 Mode S 2.265 GHz

3 transmitters · refreshed weekly from db.satnogs.org